Location: Launois
(49.6535°N, 4.5395°E)
Time: 20:29:06
(UTC+00:00)

Cosmos 1954 Rocket - Pass Details

Date: 23 May 2024
Orbit: 750 x 779 km, 74.0° (Epoch: 14 June)

Event Time Altitude Azimuth Distance (km) Brightness Sun altitude
Exits shadow 00:48:44 33° 196° (SSW) 1,296 4.6 -18.0°
Maximum altitude 00:51:13 82° 112° (ESE) 793 4.0 -17.9°
Drops below altitude 10° 00:56:33 10° 25° (NNE) 2,340 7.8 -17.6°
Sets 00:58:56 0° 25° (NNE) 3,270 9.0 -17.5°
